THOR ABLESTAR DEB, 128

Orbit data source: Space-Track

THOR ABLESTAR DEB, 128 is space debris in LEO originally from a launch on Thu, 29 Jun 1961 UTC launched from the Air Force Eastern Test Range (AFETR). Debris objects in space refer to the collection of defunct objects orbiting the Earth. Examples of debris include non-operational satellites, rocket bodies, and fragments generated from explosions, collisions, or faulty payload assembly.

Loading next visibility...
Identifier
128, 1961-015N
Orbit
LEO
Country
Flag of USUS
Related business
Manufacturer
Unknown
Mission
Spacecraft
Bus & Motor
Unknown
Mass
Unknown
Launch date (UTC)
1961-06-29 (64 years ago)
Launch vehicle
Unknown
Launch site
Air Force Eastern Test Range (AFETR)
Object type
Payload
Rocket body
Debris
Shape & HBR
Unknown shape, 0.3 m
Radar Cross Section
Medium (>0.1 m² and <1 m²)

Expand to show TLE details & history
Last TLE update: 18 hours ago

TLE from 18 hours ago
0 THOR ABLESTAR DEB
1 00128U 61015N   25291.77469639  .00000193  00000-0  17262-3 0  9998
2 00128  66.6751  63.6172 0087981 127.1073 233.8093 14.01947464281237
Epoch: 2025-10-18T18:35Z
TLE epoch observation values (Epoch: 2025-10-18T18:35:33.768Z)
Latitude
0.00005°
Longitude
117.22564°
Altitude
927.248 km
Speed
7.369 km/s
True Right ascension
04h 14m 28s
True Declination
0° 00' 00"
Sunlit
Object was in full shadow at epoch
Visualization orbit readout
Latitude
Unknown
Longitude
Unknown
Altitude
Unknown
Speed
Unknown
Apparent Right ascension
Unknown
Apparent Declination
Unknown
Sunlit
N/A
Visualization observer readout
Local Sidereal Time
07:00:06
Azimuth
Unknown
Elevation
Unknown
Doppler factor
Unknown
Orbital elements
Apogee altitude
949.364 km
Perigee altitude
821.552 km
Semi-major axis
7,263.595 km
Eccentricity
0.0088
Inclination
66.6751°
RAAN
63.6172°
Arg. of periapsis
127.1073°
True anomaly
233.00091°
Mean anomaly
233.8093°
Eccentric anomaly
233.40458°
Mean motion
3.50603 °/min
Orbital period
102.68 mins
BSTAR
0.00017262

Documentation

Showing up to 5 results
|